• In Czech Republic
  • List of Countries
  • For 7 days
  • Water Temperature
  • Satellite Maps
  • Weather Map
  • Weather Widgets
  • user-avatar
    Login

    Hourly Weather Wojponie

    Today, 18 July, Wednesday

    Time Temperature Precipitation Wind Pressure Humidity
    00:00 +20°C° 0 mm 3 mps 737 mmHg 94%
    01:00 +20°C° 0 mm 3 mps 737 mmHg 94%
    02:00 +19°C° 0 mm 2 mps 737 mmHg 96%
    03:00 +19°C° 0 mm 2 mps 737 mmHg 96%
    04:00 +19°C° 0 mm 3 mps 737 mmHg 96%
    05:00 +19°C° 0 mm 3 mps 737 mmHg 96%
    06:00 +20°C° 0 mm 3 mps 737 mmHg 94%
    07:00 +21°C° 0 mm 3 mps 737 mmHg 91%
    08:00 +22°C° 0 mm 4 mps 737 mmHg 89%
    09:00 +23°C° 0.1 mm 4 mps 737 mmHg 83%
    10:00 +26°C° 0.1 mm 4 mps 737 mmHg 78%
    11:00 +27°C° 0.1 mm 5 mps 737 mmHg 72%
    12:00 +27°C° 0.5 mm 4 mps 737 mmHg 73%
    13:00 +27°C° 0.5 mm 4 mps 737 mmHg 74%
    14:00 +28°C° 0.5 mm 4 mps 737 mmHg 75%
    15:00 +27°C° 0.4 mm 4 mps 737 mmHg 75%
    16:00 +27°C° 0.4 mm 4 mps 737 mmHg 75%
    17:00 +27°C° 0.4 mm 4 mps 737 mmHg 75%
    18:00 +26°C° 0.1 mm 3 mps 737 mmHg 78%
    19:00 +25°C° 0.1 mm 3 mps 737 mmHg 82%
    20:00 +24°C° 0.1 mm 2 mps 738 mmHg 85%
    21:00 +23°C° 0 mm 2 mps 738 mmHg 88%
    22:00 +21°C° 0 mm 2 mps 738 mmHg 90%
    23:00 +20°C° 0 mm 2 mps 738 mmHg 92%

    Tomorrow, 19 July, Thursday

    Time Temperature Precipitation Wind Pressure Humidity
    00:00 +19°C° 0 mm 2 mps 738 mmHg 92%
    01:00 +18°C° 0 mm 2 mps 738 mmHg 92%
    02:00 +18°C° 0 mm 2 mps 738 mmHg 92%
    03:00 +18°C° 0 mm 2 mps 738 mmHg 92%
    04:00 +17°C° 0 mm 2 mps 738 mmHg 92%
    05:00 +17°C° 0 mm 2 mps 738 mmHg 92%
    06:00 +18°C° 0 mm 3 mps 738 mmHg 88%
    07:00 +20°C° 0 mm 3 mps 739 mmHg 83%
    08:00 +21°C° 0 mm 4 mps 739 mmHg 79%
    09:00 +22°C° 0.1 mm 4 mps 739 mmHg 75%
    10:00 +23°C° 0.1 mm 4 mps 739 mmHg 71%
    11:00 +26°C° 0.1 mm 5 mps 739 mmHg 66%
    12:00 +26°C° 0.4 mm 5 mps 739 mmHg 68%
    13:00 +26°C° 0.4 mm 5 mps 739 mmHg 70%
    14:00 +26°C° 0.4 mm 5 mps 739 mmHg 71%
    15:00 +26°C° 0.4 mm 5 mps 739 mmHg 73%
    16:00 +26°C° 0.4 mm 5 mps 739 mmHg 74%
    17:00 +25°C° 0.4 mm 5 mps 739 mmHg 76%
    18:00 +23°C° 0.2 mm 4 mps 739 mmHg 80%
    19:00 +22°C° 0.2 mm 4 mps 739 mmHg 84%
    20:00 +21°C° 0.2 mm 3 mps 739 mmHg 88%
    21:00 +21°C° 0.1 mm 3 mps 739 mmHg 90%
    22:00 +20°C° 0.1 mm 3 mps 739 mmHg 92%
    23:00 +19°C° 0.1 mm 3 mps 739 mmHg 94%

    Day after tomorrow, 20 July, Friday

    Time Temperature Precipitation Wind Pressure Humidity
    00:00 +18°C° 0 mm 3 mps 739 mmHg 95%
    01:00 +18°C° 0 mm 3 mps 739 mmHg 95%
    02:00 +18°C° 0 mm 3 mps 739 mmHg 96%
    03:00 +17°C° 0 mm 3 mps 739 mmHg 96%
    04:00 +17°C° 0 mm 3 mps 739 mmHg 96%
    05:00 +17°C° 0 mm 3 mps 739 mmHg 96%
    06:00 +18°C° 0 mm 3 mps 739 mmHg 93%
    07:00 +19°C° 0 mm 3 mps 739 mmHg 89%
    08:00 +21°C° 0 mm 3 mps 739 mmHg 86%
    09:00 +22°C° 0.2 mm 3 mps 739 mmHg 82%
    10:00 +23°C° 0.2 mm 4 mps 739 mmHg 78%
    11:00 +25°C° 0.2 mm 4 mps 739 mmHg 74%
    12:00 +25°C° 1.1 mm 4 mps 739 mmHg 75%
    13:00 +26°C° 1.1 mm 4 mps 738 mmHg 77%
    14:00 +26°C° 1.1 mm 5 mps 738 mmHg 78%
    15:00 +26°C° 0.8 mm 5 mps 738 mmHg 78%
    16:00 +25°C° 0.8 mm 5 mps 738 mmHg 79%
    17:00 +25°C° 0.8 mm 5 mps 738 mmHg 79%
    18:00 +23°C° 0.3 mm 5 mps 738 mmHg 82%
    19:00 +22°C° 0.3 mm 4 mps 738 mmHg 85%
    20:00 +21°C° 0.3 mm 4 mps 738 mmHg 88%
    21:00 +20°C° 0.1 mm 4 mps 738 mmHg 90%
    22:00 +19°C° 0.1 mm 3 mps 738 mmHg 92%
    23:00 +18°C° 0.1 mm 3 mps 738 mmHg 94%

    21 July, Saturday

    Time Temperature Precipitation Wind Pressure Humidity
    00:00 +18°C° 0 mm 3 mps 738 mmHg 95%
    01:00 +17°C° 0 mm 3 mps 738 mmHg 95%
    02:00 +17°C° 0 mm 3 mps 738 mmHg 96%
    03:00 +17°C° 0 mm 3 mps 738 mmHg 96%
    04:00 +16°C° 0 mm 3 mps 739 mmHg 97%
    05:00 +16°C° 0 mm 3 mps 739 mmHg 97%
    06:00 +17°C° 0 mm 3 mps 739 mmHg 93%
    07:00 +19°C° 0 mm 3 mps 739 mmHg 89%
    08:00 +20°C° 0 mm 3 mps 739 mmHg 86%
    09:00 +21°C° 0 mm 3 mps 739 mmHg 80%
    10:00 +23°C° 0 mm 4 mps 739 mmHg 75%
    11:00 +25°C° 0 mm 4 mps 739 mmHg 69%
    12:00 +26°C° 0.1 mm 4 mps 739 mmHg 68%
    13:00 +26°C° 0.1 mm 4 mps 739 mmHg 66%
    14:00 +27°C° 0.1 mm 4 mps 738 mmHg 65%
    15:00 +26°C° 0.1 mm 5 mps 738 mmHg 66%
    16:00 +26°C° 0.1 mm 5 mps 738 mmHg 66%
    17:00 +26°C° 0.1 mm 5 mps 738 mmHg 67%
    18:00 +25°C° 0 mm 4 mps 738 mmHg 72%
    19:00 +22°C° 0 mm 4 mps 739 mmHg 77%
    20:00 +21°C° 0 mm 3 mps 739 mmHg 82%
    21:00 +20°C° 0 mm 3 mps 739 mmHg 85%
    22:00 +18°C° 0 mm 3 mps 739 mmHg 88%
    23:00 +17°C° 0 mm 3 mps 739 mmHg 91%

    22 July, Sunday

    Time Temperature Precipitation Wind Pressure Humidity
    00:00 +16°C° 0 mm 3 mps 739 mmHg 92%
    01:00 +16°C° 0 mm 3 mps 739 mmHg 93%
    02:00 +16°C° 0 mm 3 mps 739 mmHg 93%
    03:00 +14°C° 0 mm 3 mps 739 mmHg 94%
    04:00 +15°C° 0 mm 2 mps 739 mmHg 95%
    05:00 +15°C° 0 mm 2 mps 739 mmHg 96%
    06:00 +17°C° 0 mm 2 mps 739 mmHg 91%
    07:00 +18°C° 0 mm 3 mps 739 mmHg 87%
    08:00 +20°C° 0 mm 3 mps 739 mmHg 82%
    09:00 +21°C° 0 mm 3 mps 739 mmHg 78%
    10:00 +24°C° 0 mm 3 mps 739 mmHg 74%
    11:00 +25°C° 0 mm 3 mps 739 mmHg 70%
    12:00 +26°C° 0.1 mm 3 mps 739 mmHg 68%
    13:00 +26°C° 0.1 mm 4 mps 739 mmHg 65%
    14:00 +27°C° 0.1 mm 4 mps 739 mmHg 63%
    15:00 +27°C° 0 mm 4 mps 739 mmHg 64%
    16:00 +26°C° 0 mm 4 mps 739 mmHg 65%
    17:00 +26°C° 0 mm 4 mps 739 mmHg 66%
    18:00 +25°C° 0 mm 4 mps 739 mmHg 72%
    19:00 +22°C° 0 mm 4 mps 739 mmHg 77%
    20:00 +21°C° 0 mm 3 mps 739 mmHg 82%
    21:00 +20°C° 0 mm 3 mps 739 mmHg 84%
    22:00 +19°C° 0 mm 3 mps 739 mmHg 86%
    23:00 +17°C° 0 mm 3 mps 740 mmHg 89%

    23 July, Monday

    Time Temperature Precipitation Wind Pressure Humidity
    00:00 +17°C° 0 mm 3 mps 740 mmHg 89%
    01:00 +16°C° 0 mm 3 mps 740 mmHg 90%
    02:00 +16°C° 0 mm 3 mps 740 mmHg 91%
    03:00 +16°C° 0 mm 3 mps 740 mmHg 92%
    04:00 +14°C° 0 mm 3 mps 740 mmHg 93%
    05:00 +14°C° 0 mm 3 mps 740 mmHg 94%
    06:00 +17°C° 0 mm 3 mps 740 mmHg 89%
    07:00 +18°C° 0 mm 3 mps 741 mmHg 84%
    08:00 +20°C° 0 mm 3 mps 741 mmHg 79%
    09:00 +21°C° 0 mm 4 mps 741 mmHg 74%
    10:00 +22°C° 0 mm 4 mps 741 mmHg 70%
    11:00 +25°C° 0 mm 4 mps 741 mmHg 65%
    12:00 +25°C° 0 mm 4 mps 741 mmHg 63%
    13:00 +26°C° 0 mm 5 mps 741 mmHg 62%
    14:00 +26°C° 0 mm 5 mps 740 mmHg 60%
    15:00 +26°C° 0 mm 5 mps 740 mmHg 63%
    16:00 +25°C° 0 mm 5 mps 740 mmHg 65%
    17:00 +25°C° 0 mm 5 mps 740 mmHg 67%
    18:00 +22°C° 0 mm 5 mps 741 mmHg 72%
    19:00 +21°C° 0 mm 5 mps 741 mmHg 78%
    20:00 +19°C° 0 mm 4 mps 741 mmHg 83%
    21:00 +18°C° 0 mm 4 mps 741 mmHg 87%
    22:00 +17°C° 0 mm 4 mps 741 mmHg 91%
    23:00 +15°C° 0 mm 4 mps 741 mmHg 94%
    Show more